FLOCK 4V-11 (46285 NORAD) Tracking and Keplerian Element Data

This shows tracking and keplerian element data for the satellite.

Feedback or suggestion? Click here.




ElementValue
Catalog46285
NameFLOCK 4V-11
Epoch Orbit325
Epoch Day268.81530723
Epoch Year2020
RAAN341.5415
Inclination97.5178
Eccentricity0.0002014
Argument of Perigee266.4371
Mean Anonmoly93.6628
Mean Motion15.09894035
Decay Rate5.42E-06
L11 46285U 20061P 20268.81530723 .00000542 00000-0 37291-4 0 9998
L22 46285 97.5178 341.5415 0002014 266.4371 93.6628 15.09894035 3251

Live tracking and technical data element details for FLOCK 4V-11 (NORAD 46285). FLOCK 4V-11 can be tracked NOW for your location showing map with azimuth and elevation plus other details from your city location.

Track the satellite on the map from your city or location and see movement details for azimuth, elevation, latitude, longitude, range, height, and movement on the map or in text.







IsCatalogInMostPopularTable: catalog: 46285, numindb: 1
Update: records affected: 1



GetName: 46285 FLOCK 4V-11

Hit Count: updated at: Mon, 28 Sep 2020 15:38:02 GMT